Terminal Aerodrome Forecast
Issued by NWS

Current Version | Previous Version | Graphics & Text | Print | Product List | Glossary On
Versions: 1 2 3 4 5 6 7 8 9 10 11 12 13 14 15 16 17 18 19 20 21 22 23 24 25 26 27 28 29 30 31 32 33 34 35 36 37 38 39 40 41 42 43 44 45 46 47 48 49 50
868
FTUS41 KRNK 201558 AAB
TAFLWB
TAF AMD
KLWB 201558Z 2016/2112 25004KT P6SM SCT025 BKN035
      TEMPO 2016/2018 BKN025 BKN035
     FM201800 30004KT P6SM BKN050
     FM210600 VRB02KT P6SM SCT045
     FM210800 00000KT 1/4SM FG BKN001=

USA.gov is the U.S. government's official web portal to all federal, state and local government web resources and services.